Regional Weather Roundup
Issued by NWS Northern Indiana

Home | Current Version | Previous Version | Graphics & Text | Print | Product List | Glossary On
Versions: 1 2 3 4 5 6 7 8 9 10 11 12 13 14 15 16 17 18 19 20 21 22 23 24 25 26 27 28 29 30 31 32 33 34 35 36 37 38 39 40 41 42 43 44 45 46 47 48 49 50
000
ASUS43 KIWX 031910
RWRIWX

KIWX WEATHER ROUNDUP
NATIONAL WEATHER SERVICE NORTHERN INDIANA
300 PM EDT SUN MAY 03 2015

NOTE: "FAIR" INDICATES FEW OR NO CLOUDS BELOW 12,000 FEET WITH NO
SIGNIFICANT WEATHER AND/OR OBSTRUCTIONS TO VISIBILITY.

* THESE STATIONS ARE NOT UNDER NWS QUALITY CONTROL. THEY ALSO MAY NOT
  REPORT WEATHER SUCH AS PRECIPITATION OR FOG.

INZ001>027-032000-
NORTHERN INDIANA

CITY           SKY/WX    TMP DP  RH WIND       PRES   REMARKS
GARY*          PTSUNNY   82 N/A N/A S20       29.96S
VALPARAISO     PTSUNNY   80  42  25 SW17      29.98F
MICHIGAN CITY* CLOUDY    79  34  19 SW17G24   29.98F
LAPORTE*       PTSUNNY   80  44  27 SW12G23   29.99F
KNOX*          CLOUDY    79  -4   4 SW17G24   29.99S
SOUTH BEND     CLOUDY    78  40  25 SW17G24   29.99F
ELKHART*       PTSUNNY   77  37  24 S10G21    30.00F
GOSHEN         MOSUNNY   78  46  32 S14       30.01F
MONTICELLO*    MOSUNNY   77  50  38 S13G18    30.01F
LOGANSPORT*    MOSUNNY   77  36  22 S10G20    30.03F
ROCHESTER*     MOSUNNY   79  43  27 SW14G21   30.02F
WARSAW*        SUNNY     77  46  33 SW13      30.03S
ANGOLA*        SUNNY     79  70  73 SW14      30.03S
FORT WAYNE     MOSUNNY   76  47  35 SW16      30.06S
HUNTINGTON*    SUNNY     75  45  34 S13G18    30.05S
PERU/GRISSOM   MOSUNNY   77  49  37 SW15G28   30.02F
MARION*        SUNNY     76  41  28 SW13G18   30.06F

$$
INZ028>050-032000-
CENTRAL INDIANA

CITY           SKY/WX    TMP DP  RH WIND       PRES   REMARKS
LAFAYETTE      MOSUNNY   77  45  32 SW13G22   30.01F
MUNCIE*        SUNNY     76  45  33 SW14      30.06F
INDIANAPOLIS   PTSUNNY   77  47  34 SW9G20    30.04F

$$
MIZ043>046-050>051-056>058-064>065-071>073-077>080-032000-
SOUTHWEST LOWER MICHIGAN

CITY           SKY/WX    TMP DP  RH WIND       PRES   REMARKS
BATTLE CREEK   SUNNY     78  45  30 S16G28    30.01F
BENTON HARBOR  CLOUDY    72  47  40 W12       29.98F
COLDWATER*     FAIR      76  42  30 W15G21    30.01F
HILLSDALE*     MOSUNNY   78  41  27 W14       30.03F
HOLLAND        PTSUNNY   75  46  35 SW20G26   29.98F
GRAND RAPIDS   PTSUNNY   79  44  28 S15G25    29.97F
KALAMAZOO      MOSUNNY   79  44  28 S13G25    29.99F
STURGIS*       MOSUNNY   75  46  35 SW14      30.01F
THREE RIVERS*  FAIR      77  45  32 SW14G21   30.00F

$$
OHZ001>008-015>018-024>025-032000-
NORTHWEST OHIO

CITY           SKY/WX    TMP DP  RH WIND       PRES   REMARKS
WAUSEON*       FAIR      79  43  27 SW13G24   30.04F
DEFIANCE       SUNNY     78  46  32 SW10      30.04F
FINDLAY        MOSUNNY   78  44  29 SW16G23   30.06F
TOLEDO EXPRESS SUNNY     78  41  26 W15G28    30.04F
TOLEDO METCALF SUNNY     78  39  24 SW16G28   30.05S
LIMA           PTSUNNY   75  46  35 SW13      30.07F

$$
AND FOR LAKE MICHIGAN COASTAL AND OPEN LAKE BUOY OBSERVATIONS

STATION/POSITION TEMP    WIND        PRES    VSBY  WAVE
                 AIR SEA DIR/SP/G                  HT/PER
                 (F)     (DEG/KT/KT) (MB)    (MI)  (FT/S)
CALUMET HARBOR    79     210/ 10/ 18   N/A
MICHIGAN CITY     74     200/ 13/ 19   N/A
BURNS HARBOR      76     220/ 17/ 23 1014.9F
SAINT JOSEPH      65     180/  7/ 10 1015.2F
4 MI NW BRIDGMAN  56 49  270/  6/  6   N/A           1
MICHIGAN CITY     65 51  220/  8/ 10   N/A           1/ 2
SAINT JOSEPH CG                      1015.1      6   1

$$
&&


USA.gov is the U.S. government's official web portal to all federal, state and local government web resources and services.